Back to catalog

STARLINK-32098

AliveCommunicationsVLEO
NORAD 59704·PAYLOAD·🇺🇸 United States

Launched May 8, 2024 from Cape Canaveral Space Force Station

Loading…

Next Passes (next 24 hours)

TLE

FreshSource: CelesTrak SupGP

Epoch: Sep 14, 2026, 13:30 UTC

1 59704C 24086Y   26257.56298611 -.00011634  00000+0 -42146-3 0  2578
2 59704  43.0039  73.4450 0001527 258.0709 167.7396 15.27577551    10

Track STARLINK-32098 in real time with AllMySat

Download on the App Store